Location: Lussas
(44.6119°N, 4.4726°E)
Time: 15:04:44
(UTC+00:00)

SAR-Lupe-1 - Pass Details

Date: 26 November 2020
Orbit: 480 x 485 km, 98.2° (Epoch: 23 January)

Event Time Altitude Azimuth Distance (km) Brightness Sun altitude
Rises 05:13:18 0° 179° (S) 2,538 7.9 -17.4°
Reaches altitude 10° 05:15:24 10° 185° (S) 1,664 6.9 -17.0°
Maximum altitude 05:18:51 46° 260° (W) 663 4.3 -16.4°
Enters shadow 05:20:05 32° 311° (NW) 859 4.8 -16.2°
